Regional Weather Roundup
Issued by NWS

Home | Current Version | Previous Version | Graphics & Text | Print | Product List | Glossary On
Versions: 1 2 3 4 5 6 7 8 9 10 11 12 13 14 15 16 17 18 19 20 21 22 23 24 25 26 27 28 29 30 31 32 33 34 35 36 37 38 39 40 41 42 43 44 45 46 47 48 49 50
000
ASUS43 KLMK 060402
RWRKY
KENTUCKY REGIONAL WEATHER ROUNDUP
NATIONAL WEATHER SERVICE LOUISVILLE KY
1100 PM EST MON DEC 05 2016

NOTE "FAIR" INDICATES FEW OR NO CLOUDS BELOW 12,000 FEET
WITH NO SIGNIFICANT WEATHER AND/OR OBSTRUCTIONS TO VISIBILITY.

KYZ001>023-026-027-061>063-070>075-060500-
WESTERN AND SOUTH CENTRAL KENTUCKY

CITY           SKY/WX    TMP DP  RH WIND       PRES   REMARKS
PADUCAH        CLOUDY    42  37  82 NE6       29.79F
HENDERSON      CLOUDY    43  34  70 E9        29.81F
OWENSBORO      CLOUDY    42  36  79 E8        29.82F
HOPKINSVILLE   CLOUDY    44  41  89 E8        29.77F
BOWLING GREEN  CLOUDY    46  40  79 E7        29.81F
GLASGOW        NOT AVBL
$$

KYZ024-025-028>034-038-045-046-053-060500-
NORTH CENTRAL KENTUCKY

CITY           SKY/WX    TMP DP  RH WIND       PRES   REMARKS
LOUISVILLE/SDF CLOUDY    44  35  70 E7        29.87F
LOUISVILLE/LOU CLOUDY    44  35  70 E8        29.88F
FORT KNOX      CLOUDY    42  35  77 NE9       29.82F
$$

KYZ035>037-039>044-047>052-055>060-089>105-060500-
NORTHEAST KENTUCKY

CITY           SKY/WX    TMP DP  RH WIND       PRES   REMARKS
LEXINGTON      PTCLDY    44  35  70 E13       29.89F
COVINGTON      CLOUDY    39  33  79 E9        29.93F WCI  33
FRANKFORT      CLOUDY    44  35  70 E12       29.88F
$$

KYZ054-064>069-076>088-106>120-060500-
SOUTHEAST KENTUCKY

CITY           SKY/WX    TMP DP  RH WIND       PRES   REMARKS
JACKSON        CLOUDY    43  35  73 VRB3      29.89F
LONDON         CLOUDY    46  38  73 NE5       29.86F
SOMERSET       CLOUDY    45  37  76 NE3       29.88S
MIDDLESBORO    CLOUDY    49  44  81 W3        29.88R
MONTICELLO     CLOUDY    47  43  86 NW5       29.87S
$$





USA.gov is the U.S. government's official web portal to all federal, state and local government web resources and services.